JST53A YMML-YSSY

Flight info

Callsign JST53A
Flight time 1h 3m
Altitude 37000
Route DOSEL2/34 DOSEL Y59 RIVET
Aircraft A320/M-SDE3FGHIRWY/LB1

Departure

Time 2026-05-04 10:49
Airport Melbourne Airport (YMML)

Arrival

Time 2026-05-04 11:53
Airport Sydney Kingsford Smith International Airport (YSSY)
Time Latitude Longitude Altitude Speed Heading
2026-05-04 10:02 -37.67610 144.84664 376 ft 0 kts 81°
2026-05-04 10:30 -37.67611 144.84656 376 ft 4 kts 82°
2026-05-04 10:30 -37.67615 144.84623 376 ft 4 kts 81°
2026-05-04 10:31 -37.67620 144.84590 375 ft 4 kts 67°
2026-05-04 10:31 -37.67633 144.84568 374 ft 4 kts
2026-05-04 10:32 -37.67559 144.84552 376 ft 0 kts 352°
2026-05-04 10:37 -37.67557 144.84552 376 ft 1 kts 352°
2026-05-04 10:37 -37.67542 144.84549 377 ft 3 kts 352°
2026-05-04 10:37 -37.67518 144.84545 378 ft 4 kts 351°
2026-05-04 10:37 -37.67489 144.84530 378 ft 5 kts 325°
2026-05-04 10:39 -37.67498 144.84202 373 ft 0 kts 261°
2026-05-04 10:39 -37.67498 144.84199 372 ft 2 kts 261°
2026-05-04 10:40 -37.67507 144.84163 371 ft 7 kts 244°
2026-05-04 10:40 -37.67562 144.84120 370 ft 13 kts 188°
2026-05-04 10:40 -37.67661 144.84144 366 ft 16 kts 169°
2026-05-04 10:40 -37.67691 144.84151 367 ft 0 kts 172°
2026-05-04 10:41 -37.67695 144.84151 371 ft 3 kts 172°
2026-05-04 10:42 -37.67733 144.84158 364 ft 8 kts 172°
2026-05-04 10:42 -37.67807 144.84171 367 ft 14 kts 172°
2026-05-04 10:42 -37.67871 144.84126 365 ft 7 kts 261°
2026-05-04 10:42 -37.67872 144.84121 365 ft 0 kts 261°
2026-05-04 10:47 -37.67872 144.84120 365 ft 1 kts 261°
2026-05-04 10:47 -37.67876 144.84088 357 ft 6 kts 261°
2026-05-04 10:47 -37.67886 144.84009 359 ft 10 kts 261°
2026-05-04 10:49 -37.64404 144.83326 1916 ft 136 kts 346°
2026-05-04 10:49 -37.63446 144.83135 2439 ft 147 kts 343°
2026-05-04 10:50 -37.62355 144.82909 2760 ft 171 kts 343°
2026-05-04 10:51 -37.51165 144.87101 7828 ft 283 kts 20°
2026-05-04 10:52 -37.49382 144.88189 8751 ft 288 kts 20°
2026-05-04 10:52 -37.47563 144.89296 9670 ft 292 kts 21°
2026-05-04 10:52 -37.45713 144.90435 10373 ft 305 kts 24°
2026-05-04 10:54 -37.35126 145.06811 15141 ft 365 kts 51°
2026-05-04 10:54 -37.33641 145.09425 15848 ft 368 kts 51°
2026-05-04 10:56 -37.22892 145.28313 20579 ft 390 kts 50°
2026-05-04 10:56 -37.21329 145.31062 21205 ft 393 kts 50°
2026-05-04 10:56 -37.19731 145.33869 21822 ft 396 kts 50°
2026-05-04 10:57 -37.18131 145.36676 22444 ft 398 kts 50°
2026-05-04 10:57 -37.16511 145.39519 23062 ft 402 kts 50°
2026-05-04 10:57 -37.14881 145.42375 23660 ft 405 kts 50°
2026-05-04 10:57 -37.13237 145.45250 24143 ft 408 kts 49°
2026-05-04 10:58 -37.11566 145.48164 24622 ft 412 kts 49°
2026-05-04 10:58 -37.09885 145.51087 25093 ft 415 kts 48°
2026-05-04 10:58 -37.08191 145.54029 25552 ft 419 kts 48°
2026-05-04 10:58 -37.06476 145.57006 26014 ft 422 kts 47°
2026-05-04 10:59 -37.04755 145.59995 26459 ft 425 kts 47°
2026-05-04 10:59 -37.03018 145.63009 26905 ft 428 kts 46°
2026-05-04 10:59 -37.01270 145.66040 27317 ft 431 kts 46°
2026-05-04 10:59 -36.99504 145.69100 27720 ft 435 kts 46°
2026-05-04 11:00 -36.97728 145.72175 28142 ft 438 kts 45°
2026-05-04 11:01 -36.84931 145.94236 30860 ft 460 kts 44°
2026-05-04 11:02 -36.83047 145.97480 31197 ft 463 kts 44°
2026-05-04 11:02 -36.81149 146.00745 31498 ft 467 kts 44°
2026-05-04 11:05 -36.54232 146.46647 36738 ft 472 kts 46°
2026-05-04 11:06 -36.52313 146.49898 37000 ft 473 kts 46°
2026-05-04 11:06 -36.50405 146.53129 37057 ft 471 kts 46°
2026-05-04 11:06 -36.46515 146.59696 37060 ft 473 kts 46°
2026-05-04 11:10 -36.19054 147.05705 37075 ft 473 kts 45°
2026-05-04 11:12 -36.04011 147.30639 37091 ft 471 kts 45°
2026-05-04 11:12 -36.00083 147.37116 37098 ft 471 kts 45°
2026-05-04 11:13 -35.96145 147.43605 37102 ft 470 kts 45°
2026-05-04 11:13 -35.92249 147.50010 37110 ft 470 kts 45°
2026-05-04 11:14 -35.88314 147.56463 37117 ft 470 kts 45°
2026-05-04 11:16 -35.72577 147.82180 37116 ft 470 kts 44°
2026-05-04 11:16 -35.68628 147.88604 37130 ft 470 kts 44°
2026-05-04 11:17 -35.64675 147.95018 37103 ft 470 kts 44°
2026-05-04 11:19 -35.49523 148.19476 37104 ft 471 kts 44°
2026-05-04 11:19 -35.45556 148.25873 37112 ft 470 kts 44°
2026-05-04 11:20 -35.41592 148.32248 37134 ft 471 kts 44°
2026-05-04 11:20 -35.37603 148.38626 37141 ft 471 kts 44°
2026-05-04 11:22 -35.21715 148.63975 37110 ft 469 kts 43°
2026-05-04 11:23 -35.17729 148.70289 37121 ft 469 kts 43°
2026-05-04 11:25 -35.03776 148.92371 37113 ft 468 kts 43°
2026-05-04 11:25 -34.99782 148.98657 37130 ft 468 kts 43°
2026-05-04 11:26 -34.95759 149.04972 36756 ft 472 kts 43°
2026-05-04 11:27 -34.81988 149.26568 33384 ft 454 kts 42°
2026-05-04 11:28 -34.80048 149.29590 32814 ft 452 kts 42°
2026-05-04 11:28 -34.78123 149.32590 32328 ft 448 kts 42°
2026-05-04 11:28 -34.76215 149.35563 31836 ft 444 kts 42°
2026-05-04 11:28 -34.74345 149.38545 31384 ft 443 kts 46°
2026-05-04 11:29 -34.72777 149.41804 30919 ft 448 kts 53°
2026-05-04 11:29 -34.71327 149.45142 30473 ft 444 kts 53°
2026-05-04 11:29 -34.69891 149.48449 29989 ft 440 kts 53°
2026-05-04 11:29 -34.68471 149.51713 29550 ft 435 kts 53°
2026-05-04 11:31 -34.58897 149.73581 26652 ft 408 kts 52°
2026-05-04 11:33 -34.49607 149.94660 23623 ft 399 kts 53°
2026-05-04 11:33 -34.48310 149.97599 23197 ft 395 kts 53°
2026-05-04 11:33 -34.47013 150.00526 22725 ft 392 kts 53°
2026-05-04 11:34 -34.45727 150.03424 22263 ft 389 kts 53°
2026-05-04 11:34 -34.44454 150.06295 21799 ft 386 kts 53°
2026-05-04 11:34 -34.43189 150.09148 21329 ft 383 kts 53°
2026-05-04 11:34 -34.41953 150.11934 20938 ft 379 kts 53°
2026-05-04 11:35 -34.40693 150.14774 20458 ft 376 kts 53°
2026-05-04 11:35 -34.39457 150.17559 19968 ft 374 kts 54°
2026-05-04 11:35 -34.38248 150.20279 19590 ft 369 kts 54°
2026-05-04 11:35 -34.37031 150.23013 19122 ft 367 kts 54°
2026-05-04 11:36 -34.35822 150.25723 18685 ft 364 kts 54°
2026-05-04 11:36 -34.34621 150.28411 18235 ft 361 kts 54°
2026-05-04 11:36 -34.33425 150.31083 17660 ft 361 kts 54°
2026-05-04 11:36 -34.32240 150.33734 17290 ft 356 kts 54°
2026-05-04 11:37 -34.31235 150.35982 16885 ft 354 kts 54°
2026-05-04 11:37 -34.30067 150.38597 16391 ft 353 kts 54°
2026-05-04 11:37 -34.29105 150.40750 16029 ft 351 kts 54°
2026-05-04 11:37 -34.27945 150.43341 15610 ft 347 kts 54°
2026-05-04 11:38 -34.26798 150.45901 15202 ft 345 kts 54°
2026-05-04 11:38 -34.25665 150.48438 14843 ft 340 kts 55°
2026-05-04 11:38 -34.24545 150.50941 14399 ft 338 kts 55°
2026-05-04 11:38 -34.23432 150.53420 14014 ft 334 kts 55°
2026-05-04 11:39 -34.22322 150.55886 13535 ft 333 kts 55°
2026-05-04 11:39 -34.21226 150.58329 13130 ft 329 kts 55°
2026-05-04 11:40 -34.14870 150.72515 10775 ft 313 kts 56°
2026-05-04 11:41 -34.13829 150.74819 10388 ft 312 kts 56°
2026-05-04 11:41 -34.12792 150.77108 9997 ft 311 kts 56°
2026-05-04 11:41 -34.11781 150.79342 9807 ft 302 kts 56°
2026-05-04 11:41 -34.10774 150.81571 9516 ft 297 kts 56°
2026-05-04 11:42 -34.09800 150.83726 9135 ft 296 kts 56°
2026-05-04 11:42 -34.08806 150.85928 8741 ft 295 kts 56°
2026-05-04 11:42 -34.07826 150.88106 8339 ft 296 kts 56°
2026-05-04 11:42 -34.06852 150.90269 8007 ft 294 kts 56°
2026-05-04 11:43 -34.05881 150.92428 7676 ft 292 kts 56°
2026-05-04 11:43 -34.04916 150.94574 7374 ft 289 kts 56°
2026-05-04 11:43 -34.03966 150.96704 7081 ft 289 kts 59°
2026-05-04 11:43 -34.03425 150.99053 6786 ft 296 kts 83°
2026-05-04 11:44 -34.03700 151.01508 6480 ft 300 kts 109°
2026-05-04 11:44 -34.04774 151.03647 6148 ft 299 kts 133°
2026-05-04 11:44 -34.06214 151.05457 5993 ft 298 kts 135°
2026-05-04 11:44 -34.07803 151.07048 6006 ft 297 kts 150°
2026-05-04 11:45 -34.09653 151.08106 6019 ft 293 kts 166°
2026-05-04 11:45 -34.11628 151.08674 5939 ft 291 kts 172°
2026-05-04 11:45 -34.13598 151.09179 5607 ft 290 kts 171°
2026-05-04 11:45 -34.15560 151.09688 5324 ft 286 kts 171°
2026-05-04 11:46 -34.17430 151.10325 5199 ft 280 kts 156°
2026-05-04 11:46 -34.18914 151.11777 5058 ft 274 kts 127°
2026-05-04 11:46 -34.19640 151.13832 4938 ft 262 kts 96°
2026-05-04 11:46 -34.19541 151.15950 4813 ft 247 kts 76°
2026-05-04 11:47 -34.19189 151.17944 4684 ft 237 kts 73°
2026-05-04 11:47 -34.18810 151.19837 4554 ft 226 kts 66°
2026-05-04 11:47 -34.17996 151.21323 4428 ft 204 kts 30°
2026-05-04 11:47 -34.16797 151.22085 4271 ft 190 kts 15°
2026-05-04 11:48 -34.15562 151.22629 3967 ft 189 kts
2026-05-04 11:48 -34.14264 151.22703 3589 ft 186 kts 345°
2026-05-04 11:48 -34.12998 151.22377 3307 ft 185 kts 344°
2026-05-04 11:48 -34.11740 151.22049 3050 ft 184 kts 344°
2026-05-04 11:49 -34.10494 151.21724 2805 ft 183 kts 344°
2026-05-04 11:49 -34.09259 151.21403 2563 ft 181 kts 344°
2026-05-04 11:49 -34.08036 151.21084 2328 ft 178 kts 345°
2026-05-04 11:49 -34.06847 151.20775 2122 ft 170 kts 345°
2026-05-04 11:50 -34.05704 151.20478 1868 ft 162 kts 346°
2026-05-04 11:50 -34.04647 151.20203 1663 ft 149 kts 346°
2026-05-04 11:50 -34.03656 151.19945 1467 ft 146 kts 346°
2026-05-04 11:50 -34.02661 151.19686 1281 ft 145 kts 346°
2026-05-04 11:51 -34.01695 151.19435 1084 ft 137 kts 348°
2026-05-04 11:51 -34.00782 151.19198 917 ft 133 kts 347°
2026-05-04 11:51 -33.99876 151.18962 743 ft 131 kts 347°
2026-05-04 11:51 -33.98981 151.18730 577 ft 132 kts 348°
2026-05-04 11:52 -33.98087 151.18497 396 ft 133 kts 348°
2026-05-04 11:52 -33.97181 151.18257 213 ft 133 kts 349°
2026-05-04 11:52 -33.96285 151.18027 67 ft 130 kts 348°
2026-05-04 11:52 -33.95469 151.17819 29 ft 100 kts 347°
2026-05-04 11:53 -33.94918 151.17677 29 ft 57 kts 348°
2026-05-04 11:53 -33.94708 151.17639 29 ft 24 kts
2026-05-04 11:53 -33.94547 151.17668 30 ft 21 kts 13°
2026-05-04 11:53 -33.94446 151.17715 30 ft 9 kts 22°
2026-05-04 11:55 -33.93705 151.17560 29 ft 9 kts 351°
2026-05-04 11:55 -33.93655 151.17588 29 ft 9 kts 50°
2026-05-04 11:56 -33.93642 151.17664 30 ft 11 kts 96°
2026-05-04 11:56 -33.93656 151.17755 30 ft 9 kts 100°
2026-05-04 11:56 -33.93656 151.17799 30 ft 4 kts 67°
2026-05-04 11:56 -33.93626 151.17816 30 ft 4 kts
2026-05-04 11:57 -33.93607 151.17821 30 ft 0 kts 10°
2026-05-04 11:58 -33.93602 151.17822 30 ft 3 kts 10°
2026-05-04 11:58 -33.93556 151.17831 30 ft 10 kts
2026-05-04 11:58 -33.93546 151.17833 29 ft 0 kts
2026-05-04 11:58 -33.93529 151.17821 30 ft 5 kts 308°
2026-05-04 11:59 -33.93527 151.17791 30 ft 2 kts 274°
2026-05-04 11:59 -33.93526 151.17778 30 ft 1 kts 277°
2026-05-04 11:59 -33.93525 151.17769 30 ft 1 kts 278°
2026-05-04 11:59 -33.93524 151.17768 30 ft 0 kts 278°
2026-05-04 12:00 -33.93524 151.17766 30 ft 1 kts 279°
2026-05-04 12:00 -33.93524 151.17765 30 ft 0 kts 279°